contact:dominique.lefevre@mio.osupytheas.fr, maurice.libes@osupytheas.fr, didier.mallarino@osupytheas.fr
Project:EMSO http://www.emso-fr.org/EMSO-France
Depth: 2436.0 m
Title:EMSO Ligure Ouest : Data MII capteur MICROCAT
DateTime_Computer,Latitude,Longitude,Temperature,Conductivity,Pressure,DateTime_Instrument
DateTime_Computer,Latitude,Longitude,degC,S m-1,dbar,DateTime_Instrument
2022-01-13T00:02:50Z,42.805,6.029,13.2998,4.60021,2470.39,2022-1-13T02:04:21Z
2022-01-13T00:05:54Z,42.805,6.029,13.2995,4.60021,2470.39,2022-1-13T02:07:24Z
2022-01-13T00:08:57Z,42.805,6.029,13.2997,4.60022,2470.366,2022-1-13T02:10:28Z
2022-01-13T00:12:00Z,42.805,6.029,13.2993,4.60022,2470.39,2022-1-13T02:13:31Z
2022-01-13T00:15:03Z,42.805,6.029,13.2998,4.60024,2470.366,2022-1-13T02:16:34Z
2022-01-13T00:18:06Z,42.805,6.029,13.2996,4.60021,2470.39,2022-1-13T02:19:37Z
2022-01-13T00:21:09Z,42.805,6.029,13.2999,4.60022,2470.413,2022-1-13T02:22:40Z
2022-01-13T00:24:12Z,42.805,6.029,13.2998,4.60023,2470.427,2022-1-13T02:25:43Z
2022-01-13T00:27:15Z,42.805,6.029,13.2997,4.60021,2470.39,2022-1-13T02:28:46Z
2022-01-13T00:30:19Z,42.805,6.029,13.2996,4.60021,2470.39,2022-1-13T02:31:49Z
2022-01-13T00:33:22Z,42.805,6.029,13.2998,4.60022,2470.366,2022-1-13T02:34:53Z
2022-01-13T00:36:25Z,42.805,6.029,13.3000,4.60024,2470.413,2022-1-13T02:37:56Z
2022-01-13T00:39:28Z,42.805,6.029,13.3000,4.60021,2470.427,2022-1-13T02:40:59Z
2022-01-13T00:42:31Z,42.805,6.029,13.2998,4.60022,2470.366,2022-1-13T02:44:02Z
2022-01-13T00:45:34Z,42.805,6.029,13.2997,4.60022,2470.427,2022-1-13T02:47:05Z
2022-01-13T00:48:37Z,42.805,6.029,13.2998,4.60021,2470.413,2022-1-13T02:50:08Z
2022-01-13T00:51:40Z,42.805,6.029,13.2998,4.60022,2470.404,2022-1-13T02:53:11Z
2022-01-13T00:54:44Z,42.805,6.029,13.3000,4.60021,2470.437,2022-1-13T02:56:14Z
2022-01-13T00:57:47Z,42.805,6.029,13.2998,4.60021,2470.366,2022-1-13T02:59:17Z
2022-01-13T01:00:50Z,42.805,6.029,13.2998,4.60022,2470.427,2022-1-13T03:02:21Z
2022-01-13T01:03:53Z,42.805,6.029,13.2999,4.60022,2470.437,2022-1-13T03:05:24Z
2022-01-13T01:06:56Z,42.805,6.029,13.2998,4.60022,2470.404,2022-1-13T03:08:27Z
2022-01-13T01:09:59Z,42.805,6.029,13.2998,4.60024,2470.413,2022-1-13T03:11:30Z
2022-01-13T01:13:02Z,42.805,6.029,13.3001,4.60021,2470.474,2022-1-13T03:14:33Z
2022-01-13T01:16:05Z,42.805,6.029,13.2998,4.60023,2470.45,2022-1-13T03:17:36Z
2022-01-13T01:19:09Z,42.805,6.029,13.2997,4.60023,2470.413,2022-1-13T03:20:39Z
2022-01-13T01:22:12Z,42.805,6.029,13.2998,4.60023,2470.39,2022-1-13T03:23:42Z
2022-01-13T01:25:15Z,42.805,6.029,13.2998,4.60023,2470.413,2022-1-13T03:26:46Z
2022-01-13T01:28:18Z,42.805,6.029,13.2998,4.60022,2470.427,2022-1-13T03:29:49Z
2022-01-13T01:31:21Z,42.805,6.029,13.2998,4.60026,2470.427,2022-1-13T03:32:52Z
2022-01-13T01:34:24Z,42.805,6.029,13.2999,4.60026,2470.474,2022-1-13T03:35:55Z
2022-01-13T01:37:27Z,42.805,6.029,13.3000,4.60024,2470.413,2022-1-13T03:38:58Z
2022-01-13T01:40:30Z,42.805,6.029,13.2993,4.60021,2470.46,2022-1-13T03:42:01Z
2022-01-13T01:43:33Z,42.805,6.029,13.2998,4.60023,2470.437,2022-1-13T03:45:04Z
2022-01-13T01:46:37Z,42.805,6.029,13.2996,4.60024,2470.45,2022-1-13T03:48:07Z
2022-01-13T01:49:40Z,42.805,6.029,13.2996,4.60022,2470.413,2022-1-13T03:51:11Z
2022-01-13T01:52:43Z,42.805,6.029,13.2998,4.60022,2470.474,2022-1-13T03:54:14Z
2022-01-13T01:55:46Z,42.805,6.029,13.3000,4.60022,2470.46,2022-1-13T03:57:17Z
2022-01-13T01:58:49Z,42.805,6.029,13.2996,4.60022,2470.437,2022-1-13T04:00:20Z
2022-01-13T02:01:52Z,42.805,6.029,13.2995,4.60022,2470.437,2022-1-13T04:03:23Z
2022-01-13T02:04:55Z,42.805,6.029,13.2996,4.60023,2470.46,2022-1-13T04:06:26Z
2022-01-13T02:07:58Z,42.805,6.029,13.2999,4.60022,2470.437,2022-1-13T04:09:29Z
2022-01-13T02:11:02Z,42.805,6.029,13.2998,4.60023,2470.474,2022-1-13T04:12:32Z
2022-01-13T02:14:05Z,42.805,6.029,13.2997,4.60022,2470.46,2022-1-13T04:15:36Z
2022-01-13T02:17:08Z,42.805,6.029,13.2996,4.60022,2470.45,2022-1-13T04:18:39Z
2022-01-13T02:20:11Z,42.805,6.029,13.2998,4.60023,2470.46,2022-1-13T04:21:42Z
2022-01-13T02:23:14Z,42.805,6.029,13.2996,4.60022,2470.474,2022-1-13T04:24:45Z
2022-01-13T02:26:17Z,42.805,6.029,13.2999,4.60024,2470.483,2022-1-13T04:27:48Z
2022-01-13T02:29:20Z,42.805,6.029,13.2997,4.60022,2470.474,2022-1-13T04:30:51Z
2022-01-13T02:32:23Z,42.805,6.029,13.2996,4.60022,2470.46,2022-1-13T04:33:54Z
2022-01-13T02:35:27Z,42.805,6.029,13.2998,4.60023,2470.45,2022-1-13T04:36:57Z
2022-01-13T02:38:30Z,42.805,6.029,13.3001,4.60023,2470.497,2022-1-13T04:40:01Z
2022-01-13T02:41:33Z,42.805,6.029,13.2994,4.60022,2470.46,2022-1-13T04:43:04Z
2022-01-13T02:44:36Z,42.805,6.029,13.2997,4.60024,2470.474,2022-1-13T04:46:07Z
2022-01-13T02:47:39Z,42.805,6.029,13.2996,4.60022,2470.474,2022-1-13T04:49:10Z
2022-01-13T02:50:42Z,42.805,6.029,13.3000,4.60022,2470.483,2022-1-13T04:52:13Z
2022-01-13T02:53:45Z,42.805,6.029,13.2995,4.60023,2470.483,2022-1-13T04:55:16Z
2022-01-13T02:56:48Z,42.805,6.029,13.2996,4.60024,2470.497,2022-1-13T04:58:19Z
2022-01-13T02:59:52Z,42.805,6.029,13.2996,4.60023,2470.507,2022-1-13T05:01:22Z
2022-01-13T03:02:55Z,42.805,6.029,13.2998,4.60023,2470.483,2022-1-13T05:04:26Z
2022-01-13T03:05:58Z,42.805,6.029,13.2997,4.60022,2470.483,2022-1-13T05:07:29Z
2022-01-13T03:09:01Z,42.805,6.029,13.2994,4.60023,2470.507,2022-1-13T05:10:32Z
2022-01-13T03:12:04Z,42.805,6.029,13.2998,4.60021,2470.52,2022-1-13T05:13:35Z
2022-01-13T03:15:07Z,42.805,6.029,13.2999,4.60023,2470.52,2022-1-13T05:16:38Z
2022-01-13T03:18:10Z,42.805,6.029,13.2996,4.60023,2470.483,2022-1-13T05:19:41Z
2022-01-13T03:21:13Z,42.805,6.029,13.2996,4.60023,2470.53,2022-1-13T05:22:44Z
2022-01-13T03:24:17Z,42.805,6.029,13.3001,4.60023,2470.497,2022-1-13T05:25:47Z
2022-01-13T03:27:20Z,42.805,6.029,13.2996,4.60022,2470.52,2022-1-13T05:28:50Z
2022-01-13T03:30:23Z,42.805,6.029,13.2996,4.60022,2470.52,2022-1-13T05:31:54Z
2022-01-13T03:33:26Z,42.805,6.029,13.2999,4.60021,2470.483,2022-1-13T05:34:57Z
2022-01-13T03:36:29Z,42.805,6.029,13.2998,4.60023,2470.507,2022-1-13T05:38:00Z
2022-01-13T03:39:32Z,42.805,6.029,13.3003,4.60021,2470.497,2022-1-13T05:41:03Z
2022-01-13T03:42:35Z,42.805,6.029,13.2996,4.60022,2470.507,2022-1-13T05:44:06Z
2022-01-13T03:45:38Z,42.805,6.029,13.2998,4.60024,2470.507,2022-1-13T05:47:09Z
2022-01-13T03:48:42Z,42.805,6.029,13.2995,4.60021,2470.52,2022-1-13T05:50:12Z
2022-01-13T03:51:45Z,42.805,6.029,13.2996,4.60021,2470.483,2022-1-13T05:53:15Z
2022-01-13T03:54:48Z,42.805,6.029,13.3000,4.60021,2470.507,2022-1-13T05:56:19Z
2022-01-13T03:57:51Z,42.805,6.029,13.2997,4.60022,2470.507,2022-1-13T05:59:22Z
2022-01-13T04:00:54Z,42.805,6.029,13.2998,4.60021,2470.544,2022-1-13T06:02:25Z
2022-01-13T04:03:57Z,42.805,6.029,13.3000,4.60023,2470.497,2022-1-13T06:05:28Z
2022-01-13T04:07:00Z,42.805,6.029,13.2995,4.60021,2470.52,2022-1-13T06:08:31Z
2022-01-13T04:10:03Z,42.805,6.029,13.2997,4.60023,2470.483,2022-1-13T06:11:34Z
2022-01-13T04:13:06Z,42.805,6.029,13.2996,4.60022,2470.483,2022-1-13T06:14:37Z
2022-01-13T04:16:10Z,42.805,6.029,13.2997,4.60021,2470.507,2022-1-13T06:17:40Z
2022-01-13T04:19:13Z,42.805,6.029,13.2996,4.60021,2470.483,2022-1-13T06:20:44Z
2022-01-13T04:22:16Z,42.805,6.029,13.2996,4.60023,2470.497,2022-1-13T06:23:47Z
2022-01-13T04:25:19Z,42.805,6.029,13.2995,4.60021,2470.544,2022-1-13T06:26:50Z
2022-01-13T04:28:22Z,42.805,6.029,13.2996,4.60022,2470.52,2022-1-13T06:29:53Z
2022-01-13T04:31:25Z,42.805,6.029,13.2995,4.60023,2470.497,2022-1-13T06:32:56Z
2022-01-13T04:34:28Z,42.805,6.029,13.2998,4.60022,2470.497,2022-1-13T06:35:59Z
2022-01-13T04:37:31Z,42.805,6.029,13.2999,4.60021,2470.507,2022-1-13T06:39:02Z
2022-01-13T04:40:35Z,42.805,6.029,13.2998,4.60021,2470.497,2022-1-13T06:42:05Z
2022-01-13T04:43:38Z,42.805,6.029,13.2995,4.60021,2470.497,2022-1-13T06:45:09Z
2022-01-13T04:46:41Z,42.805,6.029,13.2992,4.60022,2470.483,2022-1-13T06:48:12Z
2022-01-13T04:49:44Z,42.805,6.029,13.2998,4.60022,2470.507,2022-1-13T06:51:15Z
2022-01-13T04:52:47Z,42.805,6.029,13.2996,4.60022,2470.52,2022-1-13T06:54:18Z
2022-01-13T04:55:50Z,42.805,6.029,13.2996,4.60021,2470.53,2022-1-13T06:57:21Z
2022-01-13T04:58:53Z,42.805,6.029,13.2998,4.60023,2470.483,2022-1-13T07:00:24Z
2022-01-13T05:01:56Z,42.805,6.029,13.2999,4.60022,2470.497,2022-1-13T07:03:27Z
2022-01-13T05:05:00Z,42.805,6.029,13.2994,4.60022,2470.507,2022-1-13T07:06:30Z
2022-01-13T05:08:03Z,42.805,6.029,13.2997,4.60021,2470.52,2022-1-13T07:09:34Z
2022-01-13T05:11:06Z,42.805,6.029,13.2996,4.60021,2470.483,2022-1-13T07:12:37Z
2022-01-13T05:14:09Z,42.805,6.029,13.2998,4.60021,2470.52,2022-1-13T07:15:40Z
2022-01-13T05:17:12Z,42.805,6.029,13.2992,4.60021,2470.483,2022-1-13T07:18:43Z
2022-01-13T05:20:15Z,42.805,6.029,13.2998,4.60021,2470.507,2022-1-13T07:21:46Z
2022-01-13T05:23:18Z,42.805,6.029,13.2998,4.60021,2470.483,2022-1-13T07:24:49Z
2022-01-13T05:26:21Z,42.805,6.029,13.2993,4.60021,2470.493,2022-1-13T07:27:52Z
2022-01-13T05:29:25Z,42.805,6.029,13.2996,4.60021,2470.497,2022-1-13T07:30:55Z
2022-01-13T05:32:28Z,42.805,6.029,13.2999,4.60026,2470.497,2022-1-13T07:33:59Z
2022-01-13T05:35:31Z,42.805,6.029,13.2998,4.60021,2470.483,2022-1-13T07:37:02Z
2022-01-13T05:38:34Z,42.805,6.029,13.2993,4.60021,2470.507,2022-1-13T07:40:05Z
2022-01-13T05:41:37Z,42.805,6.029,13.2992,4.60021,2470.483,2022-1-13T07:43:08Z
2022-01-13T05:44:40Z,42.805,6.029,13.2995,4.60023,2470.483,2022-1-13T07:46:11Z
2022-01-13T05:47:43Z,42.805,6.029,13.3000,4.60021,2470.483,2022-1-13T07:49:14Z
2022-01-13T05:50:46Z,42.805,6.029,13.2996,4.60021,2470.52,2022-1-13T07:52:17Z
2022-01-13T05:53:50Z,42.805,6.029,13.2994,4.60022,2470.483,2022-1-13T07:55:20Z
2022-01-13T05:56:53Z,42.805,6.029,13.2993,4.60021,2470.507,2022-1-13T07:58:24Z
2022-01-13T05:59:56Z,42.805,6.029,13.2998,4.60021,2470.507,2022-1-13T08:01:27Z
2022-01-13T06:02:59Z,42.805,6.029,13.2995,4.60020,2470.497,2022-1-13T08:04:30Z
2022-01-13T06:06:02Z,42.805,6.029,13.2998,4.60022,2470.52,2022-1-13T08:07:33Z
2022-01-13T06:09:05Z,42.805,6.029,13.2994,4.60021,2470.544,2022-1-13T08:10:36Z
2022-01-13T06:12:08Z,42.805,6.029,13.2994,4.60021,2470.474,2022-1-13T08:13:39Z
2022-01-13T06:15:11Z,42.805,6.029,13.2996,4.60021,2470.52,2022-1-13T08:16:42Z
2022-01-13T06:18:15Z,42.805,6.029,13.2994,4.60022,2470.483,2022-1-13T08:19:45Z
2022-01-13T06:21:18Z,42.805,6.029,13.2998,4.60021,2470.46,2022-1-13T08:22:49Z
2022-01-13T06:24:21Z,42.805,6.029,13.2997,4.60021,2470.52,2022-1-13T08:25:52Z
2022-01-13T06:27:24Z,42.805,6.029,13.2994,4.60020,2470.483,2022-1-13T08:28:55Z
2022-01-13T06:30:27Z,42.805,6.029,13.2998,4.60021,2470.52,2022-1-13T08:31:58Z
2022-01-13T06:33:30Z,42.805,6.029,13.2996,4.60022,2470.497,2022-1-13T08:35:01Z
2022-01-13T06:36:33Z,42.805,6.029,13.2996,4.60022,2470.52,2022-1-13T08:38:04Z
2022-01-13T06:39:36Z,42.805,6.029,13.2993,4.60021,2470.497,2022-1-13T08:41:07Z
2022-01-13T06:42:40Z,42.805,6.029,13.2998,4.60021,2470.483,2022-1-13T08:44:10Z
2022-01-13T06:45:43Z,42.805,6.029,13.2994,4.60021,2470.507,2022-1-13T08:47:14Z
2022-01-13T06:48:46Z,42.805,6.029,13.2997,4.60021,2470.507,2022-1-13T08:50:17Z
2022-01-13T06:51:49Z,42.805,6.029,13.2998,4.60021,2470.483,2022-1-13T08:53:20Z
2022-01-13T06:54:52Z,42.805,6.029,13.2998,4.60021,2470.483,2022-1-13T08:56:23Z
2022-01-13T06:57:55Z,42.805,6.029,13.2997,4.60021,2470.497,2022-1-13T08:59:26Z
2022-01-13T07:00:58Z,42.805,6.029,13.2996,4.60021,2470.483,2022-1-13T09:02:29Z
2022-01-13T07:04:01Z,42.805,6.029,13.2994,4.60021,2470.483,2022-1-13T09:05:32Z
2022-01-13T07:07:05Z,42.805,6.029,13.2995,4.60021,2470.497,2022-1-13T09:08:35Z
2022-01-13T07:10:08Z,42.805,6.029,13.2998,4.60021,2470.483,2022-1-13T09:11:39Z
2022-01-13T07:13:11Z,42.805,6.029,13.2996,4.60022,2470.497,2022-1-13T09:14:42Z
2022-01-13T07:16:14Z,42.805,6.029,13.2999,4.60021,2470.497,2022-1-13T09:17:45Z
2022-01-13T07:19:17Z,42.805,6.029,13.2993,4.60021,2470.46,2022-1-13T09:20:48Z
2022-01-13T07:22:20Z,42.805,6.029,13.2997,4.60021,2470.497,2022-1-13T09:23:51Z
2022-01-13T07:25:23Z,42.805,6.029,13.2996,4.60021,2470.474,2022-1-13T09:26:54Z
2022-01-13T07:28:26Z,42.805,6.029,13.2997,4.60021,2470.46,2022-1-13T09:29:57Z
2022-01-13T07:31:30Z,42.805,6.029,13.2994,4.60020,2470.483,2022-1-13T09:33:00Z
2022-01-13T07:34:33Z,42.805,6.029,13.2997,4.60021,2470.474,2022-1-13T09:36:04Z
2022-01-13T07:37:36Z,42.805,6.029,13.2998,4.60022,2470.497,2022-1-13T09:39:07Z
2022-01-13T07:40:39Z,42.805,6.029,13.2992,4.60020,2470.474,2022-1-13T09:42:10Z
2022-01-13T07:43:42Z,42.805,6.029,13.2996,4.60021,2470.483,2022-1-13T09:45:13Z
2022-01-13T07:46:45Z,42.805,6.029,13.2997,4.60022,2470.483,2022-1-13T09:48:16Z
2022-01-13T07:49:48Z,42.805,6.029,13.2996,4.60022,2470.46,2022-1-13T09:51:19Z
2022-01-13T07:52:51Z,42.805,6.029,13.2998,4.60022,2470.46,2022-1-13T09:54:22Z
2022-01-13T07:55:55Z,42.805,6.029,13.2996,4.60020,2470.46,2022-1-13T09:57:25Z
2022-01-13T07:58:58Z,42.805,6.029,13.2997,4.60021,2470.437,2022-1-13T10:00:29Z
2022-01-13T08:02:01Z,42.805,6.029,13.2992,4.60021,2470.483,2022-1-13T10:03:32Z
2022-01-13T08:05:04Z,42.805,6.029,13.2996,4.60021,2470.437,2022-1-13T10:06:35Z
2022-01-13T08:08:07Z,42.805,6.029,13.2999,4.60021,2470.46,2022-1-13T10:09:38Z
2022-01-13T08:11:10Z,42.805,6.029,13.2997,4.60021,2470.437,2022-1-13T10:12:41Z
2022-01-13T08:14:13Z,42.805,6.029,13.2997,4.60021,2470.497,2022-1-13T10:15:44Z
2022-01-13T08:17:16Z,42.805,6.029,13.2998,4.60023,2470.46,2022-1-13T10:18:47Z
2022-01-13T08:20:20Z,42.805,6.029,13.2998,4.60020,2470.474,2022-1-13T10:21:50Z
2022-01-13T08:23:23Z,42.805,6.029,13.2995,4.60021,2470.437,2022-1-13T10:24:54Z
2022-01-13T08:26:26Z,42.805,6.029,13.2995,4.60020,2470.46,2022-1-13T10:27:57Z
2022-01-13T08:29:29Z,42.805,6.029,13.2996,4.60021,2470.474,2022-1-13T10:31:00Z
2022-01-13T08:32:32Z,42.805,6.029,13.2996,4.60021,2470.45,2022-1-13T10:34:03Z
2022-01-13T08:35:35Z,42.805,6.029,13.2997,4.60020,2470.483,2022-1-13T10:37:06Z
2022-01-13T08:38:38Z,42.805,6.029,13.2994,4.60021,2470.46,2022-1-13T10:40:09Z
2022-01-13T08:41:41Z,42.805,6.029,13.2994,4.60021,2470.497,2022-1-13T10:43:12Z
2022-01-13T08:44:45Z,42.805,6.029,13.2992,4.60021,2470.399,2022-1-13T10:46:15Z
2022-01-13T08:47:48Z,42.805,6.029,13.2998,4.60020,2470.437,2022-1-13T10:49:19Z
2022-01-13T08:50:51Z,42.805,6.029,13.2996,4.60020,2470.437,2022-1-13T10:52:22Z
2022-01-13T08:53:54Z,42.805,6.029,13.2997,4.60020,2470.413,2022-1-13T10:55:25Z
2022-01-13T08:56:57Z,42.805,6.029,13.2991,4.60020,2470.45,2022-1-13T10:58:28Z
2022-01-13T09:00:00Z,42.805,6.029,13.2996,4.60019,2470.437,2022-1-13T11:01:31Z
2022-01-13T09:03:03Z,42.805,6.029,13.2996,4.60022,2470.474,2022-1-13T11:04:34Z
2022-01-13T09:06:07Z,42.805,6.029,13.2996,4.60019,2470.437,2022-1-13T11:07:37Z
2022-01-13T09:09:10Z,42.805,6.029,13.2997,4.60019,2470.46,2022-1-13T11:10:40Z
2022-01-13T09:12:13Z,42.805,6.029,13.2992,4.60019,2470.474,2022-1-13T11:13:44Z
2022-01-13T09:15:16Z,42.805,6.029,13.2992,4.60021,2470.437,2022-1-13T11:16:47Z
2022-01-13T09:18:19Z,42.805,6.029,13.2991,4.60020,2470.474,2022-1-13T11:19:50Z
2022-01-13T09:21:22Z,42.805,6.029,13.2993,4.60019,2470.427,2022-1-13T11:22:53Z
2022-01-13T09:24:25Z,42.805,6.029,13.2993,4.60019,2470.437,2022-1-13T11:25:56Z
2022-01-13T09:27:28Z,42.805,6.029,13.2995,4.60020,2470.437,2022-1-13T11:28:59Z
2022-01-13T09:30:32Z,42.805,6.029,13.2993,4.60021,2470.46,2022-1-13T11:32:02Z
2022-01-13T09:33:35Z,42.805,6.029,13.2991,4.60019,2470.46,2022-1-13T11:35:05Z
2022-01-13T09:36:38Z,42.805,6.029,13.2996,4.60022,2470.474,2022-1-13T11:38:09Z
2022-01-13T09:39:41Z,42.805,6.029,13.2993,4.60019,2470.437,2022-1-13T11:41:12Z
2022-01-13T09:42:44Z,42.805,6.029,13.2993,4.60019,2470.437,2022-1-13T11:44:15Z
2022-01-13T09:45:47Z,42.805,6.029,13.2992,4.60020,2470.46,2022-1-13T11:47:18Z
2022-01-13T09:48:50Z,42.805,6.029,13.2996,4.60019,2470.437,2022-1-13T11:50:21Z
2022-01-13T09:51:53Z,42.805,6.029,13.2995,4.60020,2470.437,2022-1-13T11:53:24Z
2022-01-13T09:54:57Z,42.805,6.029,13.2998,4.60019,2470.437,2022-1-13T11:56:27Z
2022-01-13T09:58:00Z,42.805,6.029,13.2993,4.60019,2470.46,2022-1-13T11:59:31Z
2022-01-13T10:01:03Z,42.805,6.029,13.2996,4.60020,2470.46,2022-1-13T12:02:34Z
2022-01-13T10:04:06Z,42.805,6.029,13.2996,4.60019,2470.45,2022-1-13T12:05:37Z
2022-01-13T10:07:09Z,42.805,6.029,13.2993,4.60019,2470.427,2022-1-13T12:08:40Z
2022-01-13T10:10:12Z,42.805,6.029,13.2998,4.60020,2470.45,2022-1-13T12:11:43Z
2022-01-13T10:13:15Z,42.805,6.029,13.2995,4.60019,2470.46,2022-1-13T12:14:46Z
2022-01-13T10:16:18Z,42.805,6.029,13.2996,4.60020,2470.39,2022-1-13T12:17:49Z
2022-01-13T10:19:22Z,42.805,6.029,13.2991,4.60019,2470.46,2022-1-13T12:20:52Z
2022-01-13T10:22:25Z,42.805,6.029,13.2997,4.60019,2470.413,2022-1-13T12:23:56Z
2022-01-13T10:25:28Z,42.805,6.029,13.2995,4.60019,2470.45,2022-1-13T12:26:59Z
2022-01-13T10:28:31Z,42.805,6.029,13.2997,4.60020,2470.427,2022-1-13T12:30:02Z
2022-01-13T10:31:34Z,42.805,6.029,13.2998,4.60019,2470.437,2022-1-13T12:33:05Z
2022-01-13T10:34:37Z,42.805,6.029,13.2997,4.60019,2470.413,2022-1-13T12:36:08Z
2022-01-13T10:37:40Z,42.805,6.029,13.2996,4.60019,2470.437,2022-1-13T12:39:11Z
2022-01-13T10:40:43Z,42.805,6.029,13.2996,4.60021,2470.404,2022-1-13T12:42:14Z
2022-01-13T10:43:47Z,42.805,6.029,13.2998,4.60019,2470.427,2022-1-13T12:45:17Z
2022-01-13T10:46:50Z,42.805,6.029,13.3000,4.60019,2470.427,2022-1-13T12:48:21Z
2022-01-13T10:49:53Z,42.805,6.029,13.2993,4.60019,2470.39,2022-1-13T12:51:24Z
2022-01-13T10:52:56Z,42.805,6.029,13.2997,4.60019,2470.437,2022-1-13T12:54:27Z
2022-01-13T10:55:59Z,42.805,6.029,13.2994,4.60019,2470.413,2022-1-13T12:57:30Z
2022-01-13T10:59:02Z,42.805,6.029,13.2993,4.60019,2470.427,2022-1-13T13:00:33Z
2022-01-13T11:02:05Z,42.805,6.029,13.2994,4.60018,2470.413,2022-1-13T13:03:36Z
2022-01-13T11:05:08Z,42.805,6.029,13.2992,4.60019,2470.413,2022-1-13T13:06:39Z
2022-01-13T11:08:12Z,42.805,6.029,13.2999,4.60019,2470.437,2022-1-13T13:09:42Z
2022-01-13T11:11:15Z,42.805,6.029,13.2996,4.60019,2470.437,2022-1-13T13:12:46Z
2022-01-13T11:14:18Z,42.805,6.029,13.2997,4.60019,2470.413,2022-1-13T13:15:49Z
2022-01-13T11:17:21Z,42.805,6.029,13.2996,4.60019,2470.39,2022-1-13T13:18:52Z
2022-01-13T11:20:24Z,42.805,6.029,13.2993,4.60019,2470.427,2022-1-13T13:21:55Z
2022-01-13T11:23:27Z,42.805,6.029,13.2993,4.60019,2470.413,2022-1-13T13:24:58Z
2022-01-13T11:26:30Z,42.805,6.029,13.2996,4.60019,2470.437,2022-1-13T13:28:01Z
2022-01-13T11:29:34Z,42.805,6.029,13.2994,4.60019,2470.45,2022-1-13T13:31:04Z
2022-01-13T11:32:37Z,42.805,6.029,13.2992,4.60018,2470.39,2022-1-13T13:34:07Z
2022-01-13T11:35:40Z,42.805,6.029,13.2993,4.60019,2470.427,2022-1-13T13:37:11Z
2022-01-13T11:38:43Z,42.805,6.029,13.2992,4.60019,2470.404,2022-1-13T13:40:14Z
2022-01-13T11:41:46Z,42.805,6.029,13.2996,4.60019,2470.413,2022-1-13T13:43:17Z
2022-01-13T11:44:49Z,42.805,6.029,13.2997,4.60019,2470.413,2022-1-13T13:46:20Z
2022-01-13T11:47:52Z,42.805,6.029,13.2996,4.60019,2470.413,2022-1-13T13:49:23Z
2022-01-13T11:50:55Z,42.805,6.029,13.2996,4.60019,2470.39,2022-1-13T13:52:26Z
2022-01-13T11:53:59Z,42.805,6.029,13.2993,4.60019,2470.404,2022-1-13T13:55:29Z
2022-01-13T11:57:02Z,42.805,6.029,13.2996,4.60019,2470.39,2022-1-13T13:58:33Z
2022-01-13T12:00:05Z,42.805,6.029,13.2993,4.60019,2470.45,2022-1-13T14:01:36Z
2022-01-13T12:03:08Z,42.805,6.029,13.2996,4.60017,2470.413,2022-1-13T14:04:39Z
2022-01-13T12:06:11Z,42.805,6.029,13.2991,4.60016,2470.39,2022-1-13T14:07:42Z
2022-01-13T12:09:14Z,42.805,6.029,13.2996,4.60019,2470.427,2022-1-13T14:10:45Z
2022-01-13T12:12:17Z,42.805,6.029,13.2995,4.60017,2470.39,2022-1-13T14:13:48Z
2022-01-13T12:15:20Z,42.805,6.029,13.2994,4.60018,2470.413,2022-1-13T14:16:51Z
2022-01-13T12:18:24Z,42.805,6.029,13.2993,4.60019,2470.39,2022-1-13T14:19:54Z
2022-01-13T12:21:27Z,42.805,6.029,13.2993,4.60018,2470.38,2022-1-13T14:22:58Z
2022-01-13T12:24:30Z,42.805,6.029,13.2995,4.60019,2470.413,2022-1-13T14:26:01Z
2022-01-13T12:27:33Z,42.805,6.029,13.2994,4.60019,2470.404,2022-1-13T14:29:04Z
2022-01-13T12:30:36Z,42.805,6.029,13.2996,4.60017,2470.413,2022-1-13T14:32:07Z
2022-01-13T12:33:39Z,42.805,6.029,13.2997,4.60019,2470.45,2022-1-13T14:35:10Z
2022-01-13T12:36:42Z,42.805,6.029,13.2993,4.60018,2470.39,2022-1-13T14:38:13Z
2022-01-13T12:39:45Z,42.805,6.029,13.2992,4.60019,2470.427,2022-1-13T14:41:16Z
2022-01-13T12:42:49Z,42.805,6.029,13.2991,4.60018,2470.45,2022-1-13T14:44:19Z
2022-01-13T12:45:52Z,42.805,6.029,13.2993,4.60019,2470.39,2022-1-13T14:47:23Z
2022-01-13T12:48:55Z,42.805,6.029,13.2993,4.60018,2470.413,2022-1-13T14:50:26Z
2022-01-13T12:51:58Z,42.805,6.029,13.2993,4.60018,2470.413,2022-1-13T14:53:29Z
2022-01-13T12:55:01Z,42.805,6.029,13.2994,4.60018,2470.39,2022-1-13T14:56:32Z
2022-01-13T12:58:04Z,42.805,6.029,13.2995,4.60019,2470.427,2022-1-13T14:59:35Z
2022-01-13T13:01:07Z,42.805,6.029,13.2995,4.60018,2470.427,2022-1-13T15:02:38Z
2022-01-13T13:04:11Z,42.805,6.029,13.2993,4.60018,2470.437,2022-1-13T15:05:41Z
2022-01-13T13:07:14Z,42.805,6.029,13.2994,4.60019,2470.437,2022-1-13T15:08:45Z
2022-01-13T13:10:17Z,42.805,6.029,13.2996,4.60019,2470.413,2022-1-13T15:11:48Z
2022-01-13T13:13:20Z,42.805,6.029,13.2993,4.60019,2470.413,2022-1-13T15:14:51Z
2022-01-13T13:16:23Z,42.805,6.029,13.2999,4.60018,2470.413,2022-1-13T15:17:54Z
2022-01-13T13:19:26Z,42.805,6.029,13.2995,4.60019,2470.437,2022-1-13T15:20:57Z
2022-01-13T13:22:29Z,42.805,6.029,13.2993,4.60017,2470.437,2022-1-13T15:24:00Z
2022-01-13T13:25:32Z,42.805,6.029,13.2994,4.60019,2470.413,2022-1-13T15:27:03Z
2022-01-13T13:28:36Z,42.805,6.029,13.2996,4.60018,2470.45,2022-1-13T15:30:06Z
2022-01-13T13:31:39Z,42.805,6.029,13.2993,4.60019,2470.45,2022-1-13T15:33:10Z
2022-01-13T13:34:42Z,42.805,6.029,13.2993,4.60019,2470.437,2022-1-13T15:36:13Z
2022-01-13T13:37:45Z,42.805,6.029,13.2995,4.60019,2470.45,2022-1-13T15:39:16Z
2022-01-13T13:40:48Z,42.805,6.029,13.2993,4.60017,2470.39,2022-1-13T15:42:19Z
2022-01-13T13:43:51Z,42.805,6.029,13.2998,4.60019,2470.39,2022-1-13T15:45:22Z
2022-01-13T13:46:54Z,42.805,6.029,13.2993,4.60019,2470.427,2022-1-13T15:48:25Z
2022-01-13T13:49:57Z,42.805,6.029,13.2993,4.60019,2470.404,2022-1-13T15:51:28Z
2022-01-13T13:53:01Z,42.805,6.029,13.2995,4.60019,2470.427,2022-1-13T15:54:31Z
2022-01-13T13:56:04Z,42.805,6.029,13.2996,4.60019,2470.413,2022-1-13T15:57:35Z
2022-01-13T13:59:07Z,42.805,6.029,13.2994,4.60019,2470.413,2022-1-13T16:00:38Z
2022-01-13T14:02:10Z,42.805,6.029,13.2991,4.60019,2470.437,2022-1-13T16:03:41Z
2022-01-13T14:05:13Z,42.805,6.029,13.2991,4.60019,2470.413,2022-1-13T16:06:44Z
2022-01-13T14:08:16Z,42.805,6.029,13.2993,4.60019,2470.45,2022-1-13T16:09:47Z
2022-01-13T14:11:19Z,42.805,6.029,13.2995,4.60019,2470.413,2022-1-13T16:12:50Z
2022-01-13T14:14:22Z,42.805,6.029,13.2993,4.60019,2470.437,2022-1-13T16:15:53Z
2022-01-13T14:17:26Z,42.805,6.029,13.2993,4.60019,2470.437,2022-1-13T16:18:56Z
2022-01-13T14:20:29Z,42.805,6.029,13.2993,4.60018,2470.437,2022-1-13T16:22:00Z
2022-01-13T14:23:32Z,42.805,6.029,13.2991,4.60019,2470.437,2022-1-13T16:25:03Z
2022-01-13T14:26:35Z,42.805,6.029,13.2991,4.60019,2470.437,2022-1-13T16:28:06Z
2022-01-13T14:29:38Z,42.805,6.029,13.2998,4.60019,2470.427,2022-1-13T16:31:09Z
2022-01-13T14:32:41Z,42.805,6.029,13.2998,4.60019,2470.45,2022-1-13T16:34:12Z
2022-01-13T14:35:44Z,42.805,6.029,13.2993,4.60020,2470.45,2022-1-13T16:37:15Z
2022-01-13T14:38:47Z,42.805,6.029,13.2992,4.60019,2470.474,2022-1-13T16:40:18Z
2022-01-13T14:41:51Z,42.805,6.029,13.2993,4.60019,2470.427,2022-1-13T16:43:21Z
2022-01-13T14:44:54Z,42.805,6.029,13.2996,4.60019,2470.437,2022-1-13T16:46:25Z
2022-01-13T14:47:57Z,42.805,6.029,13.2993,4.60019,2470.46,2022-1-13T16:49:28Z
2022-01-13T14:51:00Z,42.805,6.029,13.2993,4.60019,2470.45,2022-1-13T16:52:31Z
2022-01-13T14:54:03Z,42.805,6.029,13.2995,4.60019,2470.437,2022-1-13T16:55:34Z
2022-01-13T14:57:06Z,42.805,6.029,13.2992,4.60019,2470.437,2022-1-13T16:58:37Z
2022-01-13T15:00:09Z,42.805,6.029,13.2998,4.60019,2470.413,2022-1-13T17:01:40Z
2022-01-13T15:03:13Z,42.805,6.029,13.2996,4.60019,2470.437,2022-1-13T17:04:43Z
2022-01-13T15:06:16Z,42.805,6.029,13.2991,4.60019,2470.413,2022-1-13T17:07:46Z
2022-01-13T15:09:19Z,42.805,6.029,13.2994,4.60018,2470.437,2022-1-13T17:10:50Z
2022-01-13T15:12:22Z,42.805,6.029,13.2991,4.60018,2470.437,2022-1-13T17:13:53Z
2022-01-13T15:15:25Z,42.805,6.029,13.2996,4.60024,2470.483,2022-1-13T17:16:56Z